Location: Dunedin
(45.8670°S, 170.5000°E)
Time: 21:03:40
(UTC+12:00)

Cosmos 1844 Rocket - Pass Details

Date: 24 January 2019
Orbit: 826 x 843 km, 71.0° (Epoch: 21 April)

Event Time Altitude Azimuth Distance (km) Brightness Sun altitude
Rises 22:50:21 0° 203° (SSW) 3,414 7.3 -13.3°
Reaches altitude 10° 22:52:55 10° 197° (SSW) 2,476 6.2 -13.6°
Maximum altitude 22:58:23 46° 123° (ESE) 1,126 3.3 -14.2°
Enters shadow 23:02:01 20° 58° (ENE) 1,851 3.9 -14.6°
